Burnet, TX

6:51 AM CDT on September 21, 2017 (GMT -0500)
Burnet Municipal-Craddock

Weather History for KBMQ - December, 2013

Change the Weather History Date:

Thursday, December 5, 2013

  Actual Average Record
Temperature  
Mean Temperature 44 °F -  
Max Temperature 60 °F 60 °F 75 °F (1998)
Min Temperature 28 °F 41 °F 28 °F (2005)
Degree Days  
Heating Degree Days 21    
Moisture  
Dew Point 35 °F    
Average Humidity 77    
Maximum Humidity 96    
Minimum Humidity 54    
Precipitation  
Precipitation 0.00 in - - ()
Sea Level Pressure  
Sea Level Pressure 30.00 in    
Wind  
Wind Speed 9 mph (North)    
Max Wind Speed 18 mph    
Max Gust Speed 29 mph    
Visibility 7 miles    
Events Snow    
Averages and records for this station are not official NWS values.
T = Trace of Precipitation, MM = Missing Value Source: NWS Daily Summary

Daily Weather History Graph

Daily Weather History Graph

Search for Another Location

Airport or City:

Trip Planner

Search our weather history database for the weather conditions in past years. The results will help you decide how hot, cold, wet, or windy it might be!

Date:

Astronomy

Dec. 05, 2013 Rise Set
Actual Time 7:16 AM CST 5:31 PM CST
Civil Twilight 6:49 AM CST 5:57 PM CST
Nautical Twilight 6:19 AM CST 6:27 PM CST
Astronomical Twilight 5:50 AM CST 6:56 PM CST
Moon 9:42 AM CST (12/5) 8:47 PM CST (12/5)
Length of Visible Light 11h 07m
Length of Day
10h 15m
Waxing Crescent, 11% of the Moon is Illuminated
Dec 5
Waxing Crescent
Dec 9
First Quarter
Dec 17
Full
Dec 25
Last Quarter
Jan 1
New

Hourly Weather History & Observations

Time (CST) Temp. Windchill Dew Point Humidity Pressure Visibility Wind Dir Wind Speed Gust Speed Precip Events Conditions
12:07 AM 59.0 °F - 57.9 °F 96% 29.82 in 2.5 mi Calm Calm - N/A   Clear
12:33 AM 60.1 °F - 57.9 °F 93% 29.81 in 3.0 mi Calm Calm - N/A   Clear
12:53 AM 60.1 °F - 59.0 °F 96% 29.78 in 3.0 mi Calm Calm - N/A   Clear
1:27 AM 60.1 °F - 57.9 °F 93% 29.81 in 2.5 mi Calm Calm - N/A   Clear
1:51 AM 60.8 °F - 57.2 °F 88% 29.83 in 3.0 mi North 10.4 mph - N/A   Clear
1:53 AM 60.1 °F - 59.0 °F 96% 29.79 in 4.0 mi North 9.2 mph - N/A   Clear
2:15 AM 57.0 °F - 54.0 °F 89% 29.86 in 5.0 mi NNE 16.1 mph - N/A   Mostly Cloudy
2:53 AM 54.0 °F - 48.0 °F 80% 29.84 in 9.0 mi North 12.7 mph - N/A   Overcast
3:53 AM 52.0 °F - 42.1 °F 69% 29.88 in 9.0 mi NNE 18.4 mph 28.8 mph N/A   Overcast
4:28 AM 48.9 °F - 37.0 °F 64% 29.93 in 10.0 mi North 16.1 mph 25.3 mph N/A   Overcast
4:45 AM 46.9 °F - 37.0 °F 68% 29.93 in 10.0 mi North 17.3 mph 27.6 mph N/A   Overcast
4:53 AM 46.0 °F 39.0 °F 37.0 °F 71% 29.92 in 10.0 mi North 17.3 mph 26.5 mph N/A   Overcast
5:40 AM 42.1 °F 35.7 °F 35.1 °F 76% 29.99 in 9.0 mi North 11.5 mph 21.9 mph N/A   Overcast
5:53 AM 42.1 °F 34.9 °F 34.0 °F 73% 29.98 in 10.0 mi North 13.8 mph - N/A   Overcast
6:53 AM 39.9 °F 32.9 °F 30.9 °F 70% 30.01 in 10.0 mi North 11.5 mph 20.7 mph N/A   Overcast
7:53 AM 37.0 °F 28.9 °F 30.0 °F 76% 30.05 in 8.0 mi North 12.7 mph - N/A   Overcast
8:53 AM 37.0 °F 28.1 °F 28.0 °F 70% 30.08 in 10.0 mi North 15.0 mph 23.0 mph N/A   Overcast
9:53 AM 36.0 °F 28.5 °F 26.1 °F 67% 30.09 in 10.0 mi North 10.4 mph - N/A   Overcast
10:53 AM 37.0 °F 28.9 °F 25.0 °F 62% 30.10 in 10.0 mi North 12.7 mph 20.7 mph N/A   Overcast
11:53 AM 37.9 °F 29.6 °F 26.1 °F 62% 30.07 in 10.0 mi North 13.8 mph 20.7 mph 0.00 in   Overcast
12:53 PM 37.9 °F 30.5 °F 25.0 °F 60% 30.04 in 10.0 mi North 11.5 mph - 0.00 in   Overcast
1:53 PM 37.9 °F 30.0 °F 24.1 °F 57% 30.06 in 10.0 mi NNW 12.7 mph 24.2 mph N/A   Overcast
2:53 PM 37.0 °F 27.7 °F 21.9 °F 54% 30.06 in 10.0 mi NNW 16.1 mph 25.3 mph N/A   Overcast
3:53 PM 35.1 °F 25.2 °F 21.9 °F 59% 30.06 in 9.0 mi NNW 16.1 mph 24.2 mph 0.00 in Snow Light Snow
4:53 PM 34.0 °F 26.0 °F 21.0 °F 59% 30.06 in 9.0 mi North 10.4 mph 18.4 mph 0.00 in Snow Light Snow
5:53 PM 33.1 °F 24.9 °F 21.0 °F 61% 30.09 in 9.0 mi North 10.4 mph - 0.00 in Snow Light Snow
6:53 PM 30.0 °F 20.0 °F 26.1 °F 85% 30.11 in 4.0 mi North 12.7 mph 19.6 mph 0.00 in Snow Light Snow
7:00 PM 30.0 °F 20.5 °F 26.1 °F 85% 30.10 in 5.0 mi North 11.5 mph - 0.00 in Snow Light Snow
7:30 PM 30.0 °F 20.5 °F 27.0 °F 88% 30.11 in 5.0 mi North 11.5 mph 17.3 mph 0.00 in Snow Light Snow
7:53 PM 30.0 °F 20.0 °F 27.0 °F 88% 30.12 in 4.0 mi North 12.7 mph 17.3 mph 0.00 in Snow Light Snow
8:53 PM 28.9 °F 19.2 °F 26.1 °F 89% 30.12 in 6.0 mi NNE 11.5 mph - 0.00 in Snow Light Snow
9:53 PM 28.9 °F 20.4 °F 26.1 °F 89% 30.14 in 5.0 mi North 9.2 mph - 0.00 in Snow Light Snow
10:53 PM 28.0 °F 18.6 °F 25.0 °F 88% 30.12 in 6.0 mi North 10.4 mph - 0.00 in Snow Light Snow
11:12 PM 28.9 °F 21.9 °F 26.1 °F 89% 30.10 in 7.0 mi North 6.9 mph - 0.00 in Snow Light Snow
11:53 PM 28.0 °F 18.6 °F 25.0 °F 88% 30.13 in 9.0 mi North 10.4 mph - 0.00 in Snow Light Snow